Wind_Speed
18 20 19 18 18 17 16 15 14 14 14 14 14 14 14 14 14 15 15 15 16 16 16 16 15 14 14 13 13 13 13 12 12 11 11 11 10 9 9 7 6 5 3
17 17 17 16 15 15 14 12 11 11 11 11 12 12 12 13 13 14 14 14 15 15 15 15 15 14 13 13 12 12 12 12 12 11 11 11 11 11 10 8 6 4 2
15 15 14 13 12 12 11 10 9 9 9 9 10 10 10 11 12 12 13 13 13 14 14 14 14 13 13 12 12 11 11 11 10 10 10 10 11 11 11 9 7 4 2
12 12 12 11 10 9 9 8 8 7 7 8 8 8 9 9 10 11 11 12 12 12 12 13 13 13 12 12 12 11 11 10 9 9 8 8 9 9 10 9 7 6 3
10 10 9 8 7 7 6 6 5 5 5 5 6 7 7 8 9 9 10 11 11 11 11 12 12 12 12 12 12 11 11 10 9 9 8 8 7 8 8 8 7 6 5
7 7 6 6 5 4 4 3 3 3 4 4 5 6 7 7 8 9 9 10 10 11 11 11 11 12 12 12 12 12 11 10 9 9 9 9 8 7 7 7 7 6 5
4 4 3 3 2 1 1 2 3 4 5 6 7 7 7 8 9 9 9 10 10 11 11 12 12 12 12 12 12 12 11 11 10 9 9 10 9 8 7 7 6 6 5
1 1 1 1 1 1 2 3 4 6 7 8 9 10 10 10 10 10 10 10 10 11 11 12 13 13 13 13 13 12 12 11 11 10 10 10 10 9 8 8 7 7 6
5 5 5 4 4 4 4 4 6 7 8 9 10 11 11 11 10 10 10 10 10 11 12 12 13 14 14 15 14 14 13 12 12 11 11 10 10 9 9 8 9 8 8
9 8 8 8 7 6 5 6 7 8 10 10 11 11 11 11 11 11 11 10 10 11 12 13 14 14 15 16 16 16 16 15 13 12 12 11 11 10 10 10 10 10 10
13 12 11 10 9 8 8 8 8 9 10 10 10 10 10 10 10 11 11 11 11 11 12 13 14 15 16 16 17 18 18 17 15 14 13 13 12 12 11 11 12 12 11
14 14 12 12 12 12 11 11 11 11 11 11 10 10 10 10 10 10 11 12 12 13 14 14 14 16 16 17 18 19 19 19 17 16 15 14 14 14 13 13 14 13 13
16 15 15 15 15 15 15 14 14 14 13 12 11 11 11 11 12 12 13 14 15 16 17 16 16 17 17 19 20 21 20 19 18 18 17 16 15 15 15 15 15 14 13
17 17 17 18 18 17 17 17 16 16 15 14 13 12 12 12 12 13 14 16 16 18 18 19 19 20 20 20 21 21 21 20 20 19 19 18 17 16 16 16 16 15 14
18 18 18 18 19 18 18 17 17 17 16 16 15 15 14 13 13 13 15 17 18 20 20 21 22 22 22 22 22 22 22 22 22 21 21 20 19 18 18 17 17 16 14
20 20 20 20 20 20 19 19 18 18 17 17 17 17 16 16 15 15 16 17 19 21 22 23 24 24 23 23 23 23 23 23 23 23 22 22 21 20 19 18 17 16 14
25 24 24 24 23 23 23 22 21 20 20 20 20 20 19 19 20 19 20 20 22 23 24 25 25 25 24 24 23 23 23 23 23 24 24 24 23 22 21 19 18 16 16
29 29 28 27 27 27 27 26 25 24 23 23 23 23 23 23 23 23 23 24 24 25 27 28 28 27 25 25 24 22 22 23 23 24 25 25 24 24 23 21 19 18 17
33 33 31 31 31 30 30 29 29 27 27 26 26 26 26 26 25 25 26 27 27 29 30 31 30 28 27 26 25 24 23 22 22 23 24 25 26 25 24 23 21 20 19
35 35 34 33 33 32 32 31 31 30 30 29 29 29 29 28 28 28 29 29 30 31 32 33 32 31 30 28 27 26 24 23 23 24 25 25 26 26 25 24 23 22 21
37 34 36 35 35 35 34 34 33 33 32 32 31 31 30 30 30 31 31 31 32 33 35 35 35 34 33 32 29 27 27 26 25 25 26 26 26 26 26 25 24 23 23
35 35 36 37 37 37 36 36 36 35 35 34 33 33 32 31 31 32 32 33 34 35 36 37 38 37 36 35 32 30 28 28 27 26 26 26 26 26 26 25 25 25 24
38 36 37 38 39 39 39 38 37 36 36 36 35 34 33 32 32 32 33 34 35 37 38 39 39 38 37 36 35 32 29 28 27 28 27 25 25 25 25 26 26 27 26
38 37 38 40 40 40 39 37 35 36 35 35 35 34 33 32 32 32 33 34 36 37 39 40 40 40 39 38 36 34 31 30 29 28 29 28 26 26 27 27 27 28 28
37 36 36 38 39 38 36 34 34 34 33 34 33 31 31 31 31 32 34 36 38 39 39 40 41 41 40 38 36 34 32 31 30 29 29 30 29 28 28 27 28 28 29
40 38 36 34 33 32 31 31 32 32 32 32 30 30 31 32 34 35 37 38 39 39 40 40 40 40 39 37 35 34 33 33 32 32 31 30 30 30 29 27 27 27 28
Wind_Direction
97 94 94 92 91 89 86 81 75 68 61 55 51 49 47 44 42 39 38 38 39 40 41 42 44 44 44 43 44 45 46 46 45 43 41 39 38 39 41 43 46 50 59
99 96 95 94 92 89 84 78 69 60 53 47 45 45 43 41 37 35 32 31 32 33 34 35 38 39 39 40 40 43 46 48 48 46 43 40 40 42 44 45 47 47 47
101 98 96 94 92 89 83 75 65 54 45 39 37 38 38 36 32 29 26 24 24 25 26 27 30 32 33 35 36 37 40 44 46 45 43 43 41 41 43 44 46 46 44
105 103 100 97 93 90 84 77 68 56 44 34 29 29 29 28 25 22 18 16 15 16 17 18 19 21 23 25 27 29 31 33 34 34 36 41 40 39 41 42 45 48 48
114 113 110 107 103 96 89 80 71 56 41 30 20 15 14 14 12 9 7 5 4 4 5 7 8 9 12 14 16 18 21 24 25 19 16 25 34 33 34 34 36 44 51
126 125 123 121 116 108 98 82 60 39 21 9 1 357 355 354 354 354 353 352 351 351 352 354 355 357 0 3 5 8 9 11 15 10 2 4 15 16 16 19 20 27 36
140 139 140 138 132 110 74 35 14 2 353 348 343 340 338 338 340 343 343 342 341 340 340 341 343 344 348 351 352 355 358 359 2 2 354 350 359 1 357 357 356 0 5
216 225 245 267 305 334 353 357 353 349 344 341 338 336 335 336 338 341 340 339 338 336 334 335 334 335 338 340 341 344 347 347 349 351 347 343 347 347 344 341 336 334 333
264 272 277 282 293 304 320 333 338 338 336 334 333 334 338 342 346 348 347 346 344 341 337 333 331 330 332 333 333 332 333 334 335 336 335 335 334 333 333 330 327 323 317
268 271 274 276 281 286 298 314 326 331 333 330 329 332 339 345 350 351 353 354 352 347 342 335 330 326 325 324 324 322 321 321 322 323 322 322 323 322 323 326 326 322 316
265 267 270 270 273 277 286 298 311 319 324 325 326 329 334 340 346 350 353 353 350 346 342 335 330 324 320 317 315 314 312 311 312 313 312 312 312 311 314 320 324 323 317
260 263 266 267 271 274 281 287 296 307 311 312 313 317 322 328 336 339 340 343 342 340 335 331 326 323 318 314 309 308 305 302 304 307 306 305 304 305 309 312 316 317 315
259 260 263 267 270 272 277 280 287 296 299 299 300 304 309 314 321 326 332 337 337 336 333 326 323 319 314 310 308 303 300 296 298 300 300 299 300 302 303 304 306 309 310
260 263 263 266 270 271 273 276 281 287 290 290 292 295 300 308 314 322 326 329 330 331 332 332 325 317 311 306 304 300 296 293 292 294 294 294 295 296 297 299 301 303 303
258 263 264 266 270 272 274 276 279 284 287 290 291 291 294 299 306 314 318 323 323 327 329 329 327 322 314 306 299 296 293 290 287 288 289 289 289 291 293 295 297 298 299
254 258 261 264 267 270 272 275 279 283 286 289 289 290 291 293 296 301 309 317 322 324 327 329 327 324 318 313 302 294 290 287 282 282 283 284 285 288 290 293 295 296 297
256 257 259 262 265 268 271 273 276 279 282 285 287 289 289 292 294 296 301 307 312 317 320 324 326 325 321 317 309 299 289 284 280 277 277 279 281 285 288 289 290 291 294
260 258 259 262 265 267 270 273 276 278 281 284 287 289 291 292 295 297 299 304 307 310 313 317 321 322 320 318 313 303 292 286 281 277 274 274 276 279 283 284 285 286 290
263 260 259 261 265 268 272 274 278 281 283 286 289 291 293 293 293 295 297 301 303 306 308 312 315 315 316 315 312 305 297 289 281 277 275 273 272 274 277 280 282 283 285
262 260 258 260 263 268 272 276 279 282 284 287 289 291 292 292 291 293 295 297 299 301 303 306 308 308 309 310 308 304 296 290 283 279 277 275 272 270 273 276 278 280 283
262 260 262 264 262 265 270 273 277 280 283 285 287 288 289 289 289 289 291 293 294 297 299 301 302 303 303 303 303 300 295 290 283 278 277 275 273 269 269 273 276 278 281
267 264 262 262 260 264 266 269 273 277 279 281 283 284 285 285 285 285 287 289 291 293 296 297 298 299 299 298 298 294 290 286 282 277 274 271 269 269 268 269 272 275 278
272 270 267 264 263 260 261 265 269 273 275 277 278 279 281 281 281 282 284 286 288 291 293 295 295 296 296 295 294 292 286 281 278 277 273 270 267 266 267 268 268 271 274
272 270 268 267 264 262 261 261 266 270 273 275 275 276 277 279 280 282 284 286 288 290 291 292 293 293 292 292 290 288 284 279 275 272 271 270 267 264 265 266 267 269 272
273 272 267 266 262 262 263 264 270 271 273 274 273 274 276 279 282 284 287 288 289 290 290 290 290 289 289 288 286 285 282 278 274 270 268 269 267 264 263 264 265 268 271
272 271 270 268 264 265 269 271 272 272 273 273 274 276 278 281 285 287 288 289 289 289 289 289 288 287 286 286 284 282 280 276 273 271 269 267 267 265 262 262 263 266 270
Height
5927 5926 5926 5927 5927 5927 5927 5928 5928 5928 5928 5927 5927 5926 5925 5923 5922 5920 5919 5918 5916 5915 5914 5912 5911 5910 5908 5907 5906 5905 5904 5903 5902 5901 5900 5899 5898 5897 5896 5895 5894 5893 5893
5929 5929 5929 5930 5930 5930 5930 5930 5930 5930 5930 5929 5928 5928 5926 5925 5924 5922 5921 5919 5918 5917 5915 5914 5913 5911 5910 5909 5907 5906 5905 5904 5902 5901 5900 5899 5898 5897 5896 5895 5894 5894 5893
5931 5931 5932 5932 5932 5932 5932 5932 5932 5932 5931 5931 5930 5929 5928 5927 5925 5924 5923 5921 5920 5918 5917 5915 5914 5913 5911 5910 5908 5907 5906 5904 5903 5902 5900 5899 5898 5897 5896 5895 5894 5894 5893
5933 5933 5933 5934 5934 5933 5933 5933 5933 5933 5932 5932 5931 5930 5929 5928 5927 5925 5924 5922 5921 5919 5918 5917 5915 5914 5912 5911 5909 5908 5906 5905 5903 5902 5901 5899 5898 5897 5896 5895 5895 5894 5893
5935 5935 5935 5935 5935 5935 5934 5934 5934 5934 5933 5933 5932 5931 5930 5928 5927 5926 5925 5924 5922 5920 5919 5918 5916 5915 5913 5912 5910 5909 5907 5906 5904 5902 5901 5899 5898 5897 5896 5895 5895 5893 5892
5936 5936 5936 5936 5936 5935 5935 5935 5935 5934 5934 5933 5932 5931 5930 5929 5928 5927 5926 5924 5923 5921 5920 5918 5917 5915 5914 5912 5911 5909 5908 5906 5905 5903 5901 5899 5898 5897 5896 5895 5894 5893 5892
5937 5937 5937 5936 5936 5936 5936 5935 5935 5935 5934 5933 5932 5931 5930 5929 5928 5927 5925 5924 5923 5921 5920 5918 5917 5915 5914 5912 5911 5909 5908 5906 5905 5903 5901 5899 5898 5896 5895 5894 5893 5892 5891
5938 5938 5937 5937 5936 5936 5936 5935 5935 5934 5934 5933 5932 5931 5930 5929 5927 5926 5925 5924 5922 5921 5919 5918 5916 5915 5913 5912 5910 5909 5907 5906 5905 5903 5902 5900 5898 5896 5895 5893 5892 5891 5889
5938 5938 5937 5937 5936 5936 5935 5935 5934 5934 5933 5932 5931 5930 5929 5928 5927 5925 5924 5923 5922 5920 5919 5917 5916 5914 5913 5911 5909 5908 5906 5905 5903 5902 5900 5899 5897 5895 5893 5892 5890 5889 5887
5937 5937 5937 5937 5936 5935 5935 5934 5934 5933 5932 5931 5930 5929 5928 5927 5926 5924 5923 5922 5921 5919 5918 5916 5915 5913 5911 5910 5908 5906 5905 5903 5902 5900 5899 5897 5896 5894 5892 5890 5888 5886 5885
5936 5936 5936 5936 5935 5935 5934 5933 5932 5932 5931 5930 5928 5927 5926 5925 5924 5923 5922 5920 5919 5918 5916 5915 5913 5911 5910 5908 5906 5904 5903 5901 5900 5898 5896 5895 5894 5892 5890 5888 5886 5884 5883
5934 5934 5934 5934 5933 5933 5932 5931 5931 5930 5929 5928 5927 5925 5924 5923 5922 5921 5920 5918 5917 5916 5914 5913 5911 5909 5907 5905 5903 5901 5900 5899 5897 5896 5894 5892 5891 5889 5888 5886 5884 5883 5881
5931 5931 5932 5931 5931 5931 5930 5929 5928 5927 5926 5925 5924 5923 5922 5920 5919 5918 5917 5915 5914 5913 5911 5909 5907 5905 5903 5901 5900 5898 5897 5895 5894 5893 5891 5889 5888 5886 5885 5884 5882 5881 5879
5928 5928 5929 5928 5928 5928 5927 5926 5926 5925 5924 5923 5922 5921 5920 5918 5916 5915 5914 5913 5911 5910 5908 5906 5904 5902 5900 5897 5895 5894 5892 5891 5890 5889 5888 5886 5885 5883 5882 5880 5879 5878 5876
5926 5925 5925 5925 5924 5924 5924 5923 5922 5921 5920 5919 5918 5918 5917 5916 5914 5913 5911 5910 5908 5906 5904 5901 5899 5897 5895 5893 5891 5889 5888 5887 5886 5885 5884 5883 5881 5880 5878 5877 5875 5874 5872
5922 5922 5922 5922 5921 5921 5920 5920 5919 5918 5917 5915 5915 5914 5913 5912 5912 5910 5908 5906 5904 5902 5899 5897 5895 5893 5890 5888 5886 5885 5884 5882 5881 5880 5879 5878 5877 5876 5874 5873 5871 5870 5869
5917 5917 5917 5917 5917 5917 5916 5916 5915 5915 5914 5912 5911 5909 5909 5907 5906 5905 5904 5902 5900 5898 5896 5894 5891 5888 5886 5883 5881 5879 5878 5877 5876 5875 5874 5873 5872 5871 5870 5869 5868 5866 5865
5911 5911 5910 5911 5911 5911 5910 5910 5910 5909 5908 5907 5906 5904 5903 5902 5900 5899 5898 5896 5895 5893 5891 5888 5886 5884 5881 5879 5876 5874 5872 5871 5870 5869 5869 5868 5867 5866 5865 5864 5863 5862 5861
5904 5904 5903 5903 5903 5903 5903 5903 5902 5902 5901 5900 5899 5898 5897 5895 5894 5893 5892 5890 5889 5887 5885 5883 5881 5879 5877 5874 5872 5869 5867 5866 5864 5864 5863 5862 5861 5861 5860 5859 5858 5857 5857
5896 5895 5896 5896 5895 5895 5895 5895 5894 5894 5893 5893 5892 5891 5890 5889 5887 5886 5885 5884 5882 5880 5879 5877 5875 5873 5871 5869 5867 5864 5862 5860 5859 5858 5857 5856 5855 5854 5854 5853 5852 5852 5851
5887 5888 5888 5888 5887 5887 5887 5887 5886 5886 5886 5885 5885 5884 5883 5882 5881 5880 5878 5877 5875 5874 5872 5870 5868 5866 5864 5862 5861 5859 5857 5855 5853 5852 5851 5849 5848 5848 5848 5847 5846 5846 5845
5878 5878 5879 5878 5877 5878 5878 5878 5878 5878 5878 5878 5877 5876 5876 5875 5874 5873 5871 5870 5868 5866 5864 5862 5860 5858 5856 5855 5854 5852 5851 5849 5847 5845 5844 5843 5842 5842 5841 5841 5840 5840 5839
5869 5869 5868 5868 5867 5868 5867 5867 5869 5869 5869 5869 5868 5868 5867 5867 5866 5865 5864 5862 5860 5858 5857 5854 5852 5850 5849 5846 5845 5844 5843 5842 5840 5839 5837 5836 5836 5835 5835 5835 5834 5833 5833
5860 5860 5860 5858 5858 5856 5857 5858 5858 5859 5860 5859 5859 5859 5859 5858 5858 5857 5855 5854 5852 5850 5848 5846 5844 5841 5840 5838 5836 5835 5834 5833 5832 5832 5830 5829 5829 5828 5828 5828 5828 5827 5826
5849 5849 5848 5847 5847 5847 5847 5848 5849 5850 5850 5850 5850 5850 5850 5850 5849 5848 5847 5845 5843 5841 5839 5837 5834 5832 5830 5829 5827 5826 5825 5824 5823 5823 5823 5822 5822 5821 5821 5821 5821 5820 5819
5838 5838 5836 5836 5837 5838 5839 5840 5841 5842 5842 5842 5842 5842 5842 5842 5841 5840 5838 5836 5834 5832 5830 5827 5825 5823 5821 5819 5818 5817 5816 5815 5814 5813 5814 5814 5814 5813 5813 5813 5813 5813 5812